Change the Weather History Date:

Sunday, October 23, 2011

  Actual Average Record
Temperature  
Mean Temperature 60 °F -  
Max Temperature 71 °F 75 °F 84 °F (1981)
Min Temperature 50 °F 55 °F 38 °F (1974)
Degree Days  
Heating Degree Days 4    
Growing Degree Days 10 (Base 50)    
Moisture  
Dew Point 52 °F    
Average Humidity 86    
Maximum Humidity 100    
Minimum Humidity 50    
Precipitation  
Precipitation 0.00 in - - ()
Sea Level Pressure  
Sea Level Pressure 30.09 in    
Wind  
Wind Speed 3 mph (NNE)    
Max Wind Speed 9 mph    
Max Gust Speed -    
Visibility 9 miles    
Events      
Averages and records for this station are not official NWS values.
T = Trace of Precipitation, MM = Missing Value Source: NWS Daily Summary

Daily Weather History Graph

Daily Weather History Graph

Search for Another Location

Airport or City:

Trip Planner

Search our weather history database for the weather conditions in past years. The results will help you decide how hot, cold, wet, or windy it might be!

Date:

Astronomy

Oct. 23, 2011 Rise Set
Actual Time 7:32 AM EDT 6:41 PM EDT
Civil Twilight 7:07 AM EDT 7:06 PM EDT
Nautical Twilight 6:38 AM EDT 7:35 PM EDT
Astronomical Twilight 6:10 AM EDT 8:03 PM EDT
Moon 3:49 AM EDT (10/23) 4:22 PM EDT (10/23)
Length of Visible Light 11h 59m
Length of Day
11h 09m
Waning Crescent, 14% of the Moon is Illuminated
Oct 23
Waning Crescent
Oct 26
New
Nov 2
First Quarter
Nov 10
Full
Nov 18
Last Quarter

Hourly Weather History & Observations

Time (EDT) Temp. Dew Point Humidity Pressure Visibility Wind Dir Wind Speed Gust Speed Precip Events Conditions
12:15 AM 50.0 °F 48.2 °F 94% 30.09 in 10.0 mi Calm Calm - 0.00 in   Clear
12:35 AM 50.0 °F 48.2 °F 94% 30.09 in 10.0 mi North 3.5 mph - 0.00 in   Clear
12:55 AM 50.0 °F 48.2 °F 94% 30.09 in 10.0 mi North 3.5 mph - 0.00 in   Clear
1:15 AM 50.0 °F 50.0 °F 100% 30.08 in 10.0 mi North 3.5 mph - 0.00 in   Clear
1:35 AM 50.0 °F 48.2 °F 94% 30.09 in 9.0 mi North 3.5 mph - 0.00 in   Clear
1:55 AM 50.0 °F 48.2 °F 94% 30.09 in 10.0 mi Calm Calm - 0.00 in   Clear
2:15 AM 50.0 °F 50.0 °F 100% 30.08 in 10.0 mi NNE 3.5 mph - 0.00 in   Clear
2:35 AM 50.0 °F 50.0 °F 100% 30.08 in 10.0 mi North 3.5 mph - 0.00 in   Clear
2:55 AM 50.0 °F 50.0 °F 100% 30.08 in 10.0 mi NNE 3.5 mph - 0.00 in   Clear
3:35 AM 50.0 °F 50.0 °F 100% 30.08 in 10.0 mi NNE 3.5 mph - 0.00 in   Clear
3:55 AM 51.8 °F 50.0 °F 94% 30.07 in 10.0 mi NNE 3.5 mph - 0.00 in   Clear
4:15 AM 51.8 °F 50.0 °F 94% 30.07 in 10.0 mi North 3.5 mph - 0.00 in   Clear
4:35 AM 51.8 °F 50.0 °F 94% 30.07 in 10.0 mi North 3.5 mph - 0.00 in   Clear
4:55 AM 51.8 °F 51.8 °F 100% 30.07 in 5.0 mi NNE 3.5 mph - 0.00 in   Clear
5:15 AM 51.8 °F 50.0 °F 94% 30.07 in 3.0 mi Calm Calm - 0.00 in   Clear
5:35 AM 51.8 °F 50.0 °F 94% 30.07 in 3.0 mi North 3.5 mph - 0.00 in   Clear
6:35 AM 51.8 °F 51.8 °F 100% 30.07 in 7.0 mi NNE 3.5 mph - 0.00 in   Clear
6:50 AM 53.6 °F 51.8 °F 94% 30.07 in 8.0 mi NNE 8.1 mph - N/A   Clear
7:50 AM 53.6 °F 50.0 °F 88% 30.09 in 10.0 mi North 5.8 mph - N/A   Clear
8:50 AM 59.0 °F 53.6 °F 82% 30.12 in 10.0 mi North 8.1 mph - N/A   Scattered Clouds
9:50 AM 60.8 °F 51.8 °F 72% 30.13 in 10.0 mi North 8.1 mph - N/A   Scattered Clouds
10:50 AM 66.2 °F 51.8 °F 60% 30.12 in 10.0 mi North 8.1 mph - N/A   Clear
11:50 AM 68.0 °F 50.0 °F 52% 30.12 in 10.0 mi NNE 8.1 mph - N/A   Clear
12:50 PM 69.8 °F 51.8 °F 53% 30.11 in 10.0 mi North 9.2 mph - N/A   Clear
1:50 PM 71.6 °F 51.8 °F 50% 30.09 in 10.0 mi NNE 9.2 mph - N/A   Clear
2:50 PM 69.8 °F 51.8 °F 53% 30.07 in 10.0 mi NNW 8.1 mph - N/A   Clear
3:50 PM 69.8 °F 51.8 °F 53% 30.05 in 10.0 mi NNE 4.6 mph - N/A   Clear
4:50 PM 71.6 °F 51.8 °F 50% 30.05 in 10.0 mi NE 3.5 mph - N/A   Clear
6:50 PM 62.6 °F 57.2 °F 82% 30.05 in 10.0 mi East 3.5 mph - N/A   Partly Cloudy
7:50 PM 60.8 °F 57.2 °F 88% 30.08 in 10.0 mi Calm Calm - N/A   Clear
9:15 PM 60.8 °F 57.2 °F 88% 30.09 in 10.0 mi Calm Calm - 0.00 in   Overcast
9:35 PM 60.8 °F 57.2 °F 88% 30.10 in 10.0 mi Calm Calm - 0.00 in   Mostly Cloudy
10:15 PM 60.8 °F 59.0 °F 94% 30.10 in 10.0 mi Calm Calm - 0.00 in   Overcast
10:35 PM 60.8 °F 59.0 °F 94% 30.10 in 10.0 mi Calm Calm - 0.00 in   Overcast
10:55 PM 60.8 °F 59.0 °F 94% 30.10 in 10.0 mi Calm Calm - 0.00 in   Mostly Cloudy
11:35 PM 62.6 °F 60.8 °F 94% 30.10 in 10.0 mi Calm Calm - 0.00 in   Mostly Cloudy
11:55 PM 60.8 °F 60.8 °F 100% 30.10 in 10.0 mi Calm Calm - 0.00 in   Scattered Clouds